Regional Weather Roundup
Issued by NWS Upton, NY

Current Version | Previous Version | Text Only | Print | Product List | Glossary On
Versions: 1 2 3 4 5 6 7 8 9 10 11 12 13 14 15 16 17 18 19 20 21 22 23 24 25 26 27 28 29 30 31 32 33 34 35 36 37 38 39 40 41 42 43 44 45 46 47 48 49 50
000
ASUS41 KOKX 232209
RWROKX

Regional Weather Roundup
National Weather Service New York NY
500 PM EST TUE JAN 23 2018

Note: "FAIR" indicates few or no clouds below 12,000 feet with no
significant weather and/or obstructions to visibility.

NYZ071-072-176-178-NJZ106-104-232300-
New York City Metro Area

CITY           SKY/WX    TMP DP  RH WIND       PRES   REMARKS
Central Park   CLOUDY    55  47  74 W10G22    29.61R
Bronx Bot Gard   N/A     55  48  76 W7        29.61R
Bronx Lehman C NOT AVBL
LaGuardia Arpt HVY RAIN  56  49  77 W14G20    29.56R
Queens College NOT AVBL
Kennedy Intl   MOCLDY    49  48  97 SW6       29.58R
Breezy Point     N/A     48 N/A N/A W10G16      N/A
Brooklyn Coll  NOT AVBL
Staten Island  NOT AVBL
Newark/Liberty MOCLDY    54  42  64 W21G31    29.60R
Teterboro      CLOUDY    54  42  64 NW15G28   29.59R
$$

NYZ177-179-078>081-232300-
Long Island New York

CITY           SKY/WX    TMP DP  RH WIND       PRES   REMARKS
Jones Beach      N/A     46 N/A N/A SW8         N/A
Wantagh        NOT AVBL
Matinecock Pt    N/A     55 N/A N/A SW8         N/A
Farmingdale    CLOUDY    50  48  93 SW7       29.56R
MacArthur/ISP  CLOUDY    51  48  89 SW9       29.56R
Shirley        LGT RAIN  47  47 100 VRB5      29.56R FOG
Mt Sinai Harb    N/A    N/A N/A N/A S3          N/A
Westhampton    LGT RAIN  45  43  93 SW8       29.57R
East Hampton   CLOUDY    46  46  98 SW12G18   29.54R FOG
Southold       NOT AVBL
Montauk          N/A     49  48  97 S10G20    29.54S
$$

NYZ052-065-067-232300-
Hudson Valley

CITY           SKY/WX    TMP DP  RH WIND       PRES   REMARKS
White Plains   LGT RAIN  51  46  83 NW9       29.57R FOG
Larchmont Harb   N/A     48 N/A N/A SW10        N/A
Croton On Huds   N/A     48 N/A N/A NW20G28     N/A
Somers         NOT AVBL
Brewster       NOT AVBL
Newburgh       LGT RAIN  48  45  87 W23G29    29.59R FOG
Montgomery     LGT RAIN  48  39  71 SW14      29.57R
Otisville      NOT AVBL
Warwick        NOT AVBL
Suffern        NOT AVBL
Poughkeepsie   LGT RAIN  49  40  71 W10       29.58R
Albany         LGT RAIN  44  42  93 S8        29.51F VSB 1/4
$$

NJZ001-105-106-008-010-013-015-019>022-104-232300-
New Jersey

CITY           SKY/WX    TMP DP  RH WIND       PRES   REMARKS
Newark/Liberty MOCLDY    54  42  64 W21G31    29.60R
Teterboro      CLOUDY    54  42  64 NW15G28   29.59R
Caldwell       CLOUDY    52  41  66 W13G28    29.60R
Somerville     CLOUDY    51  41  68 NW6       29.61R
Linden         CLOUDY    54  39  58 NW21G35   29.62R
Perth Amboy      N/A     54 N/A N/A NW24G31     N/A
Sussex         CLOUDY    48  40  73 SW6       29.60R
Andover          N/A     45  41  86 S3        29.61R
Trenton        CLOUDY    53  41  63 NW10      29.63R
Millville      LGT RAIN  54  50  86 W12       29.65R
Atlantic City  CLOUDY    57  52  83 NW17G25   29.62R
Wrightstown    CLOUDY    55  47  73 NW15G28   29.61R
Toms River     CLOUDY    55  54  96 W6        29.61R
Belmar         CLOUDY    55  53  93 W6        29.61R
$$

PAZ047>061-062-071-232300-
Eastern Pennsylvania

CITY           SKY/WX    TMP DP  RH WIND       PRES   REMARKS
Philadelphia   CLOUDY    55  39  54 NW17G23   29.66R
Allentown      MOCLDY    49  41  74 W7        29.63R
Scranton       MOCLDY    47  35  63 W17G25    29.60R
$$

CTZ002-004>006-009-010-012-RIZ004-006-007-MAZ004-011-015-232300-
Southern New England

 In CT

CITY           SKY/WX    TMP DP  RH WIND       PRES   REMARKS
Bradley Intl   CLOUDY    39  39 100 CALM      29.53R FOG
Hartford       FOG       40  40 100 N5        29.54R VSB 1/4
Danbury        CLOUDY    54  44  69 W8        29.56R
Wtrbury/Oxford MOCLDY    52  49  89 W6        29.54R
Norwalk Harbor   N/A     50 N/A N/A W12         N/A
Bridgeport     CLOUDY    46  44  93 SW9       29.54R
Meriden        FOG       51  51 100 S3        29.53R VSB 1/4
New Haven      CLOUDY    49  47  93 SW9       29.53R
Chester        FOG       52  50  93 SW10      29.52R VSB 1/4
Groton         FOG       46  45  96 SW9       29.52R VSB 1/2
Willimantic    CLOUDY    55  53  93 S7        29.49S

 In RI

CITY           SKY/WX    TMP DP  RH WIND       PRES   REMARKS
Providence     CLOUDY    55  55 100 SW14      29.51R
Block Island   LGT RAIN  49  49 100 S20G28    29.54R VSB 1/2
Westerly       FOG       48  48 100 S16       29.52F VSB 3/4

In MA

CITY           SKY/WX    TMP DP  RH WIND       PRES   REMARKS
Boston         LGT RAIN  44  42  93 NW21      29.49R
Worcester      FOG       45  43  93 W7        29.47F VSB 1/4
Westfield      FOG       36  36 100 NW5       29.52R VSB 1/4 WCI  32
Provincetown   LGT RAIN  48  47  96 S20G25    29.53R FOG
Nantucket      MOCLDY    49  49 100 S21G31    29.59R FOG
$$

ANZ330-335-338-340-345-350-353-355-232300-
Coastal Marine Observations


STATION/POSITION TIME  SKY/WX   TEMP    WIND        PRES    VSBY  WAVE
                                AIR SEA DIR/SP/G                  HT/PER
                 (UTC)          (F)     (DEG/KT/KT) (MB)    (MI)  (FT/S)
NY Harb Entrance 2050            44 40  210/ 10/ 10 1000.2          6/ 7
20 S Fire Island 2050            46 42  230/ 12/ 12 1000.7          7/ 7
15 E Barnegat Li 2130               42                N/A           6/ 6
Hudson Canyon    2050            54 49  200/ 19/ 21 1001.0          6/ 7
Kings Point      2130            52 35  200/  6/  7 1001.4
Execution Rocks  NOT AVBL
Western LI Sound NOT AVBL
Central LI Sound 2130            41     200/ 10/ 12   N/A           2
Robbins Reef     2130            59     260/ 13/ 15 1001.3
$$


>>>>>>>>>>>>>>>>>>>>>>>>>>>> KEY <<<<<<<<<<<<<<<<<<<<<<<<<<<
>                                                          <
>     SKY/WX - Sky Condition/Present Weather               <
>     TMP    - Temperature in Fahrenheit                   <
>     DP     - Dew Point in Fahrenheit                     <
>     RH     - Relative Humidity in Percent                <
>     WIND   - Direction (from) and Speed in MPH           <
>     PRES   - Mean Sea Level Pressure (inches of Hg)      <
>     WCI    - Wind Chill Index                            <
>     VSB    - Visibility in Miles                         <
>     HX     - Heat Index                                  <
>     TC     - Temperature in Celsius                      <
>     VRB    - Varibale Wind Direction                     <
>                                                          <
>>>>>>>>>>>>>>>>>>>>>>>>>>>> KEY <<<<<<<<<<<<<<<<<<<<<<<<<<<



USA.gov is the U.S. government's official web portal to all federal, state and local government web resources and services.